Regional Weather Roundup
Issued by NWS Green Bay, WI

Home | Current Version | Previous Version | Text Only | Print | Product List | Glossary On
Versions: 1 2 3 4 5 6 7 8 9 10 11 12 13 14 15 16 17 18 19 20 21 22 23 24 25 26 27 28 29 30 31 32 33 34 35 36 37 38 39 40 41 42 43 44 45 46 47 48 49 50
000
ASUS43 KGRB 241300
RWRGRB

NORTH-CENTRAL AND NORTHEAST WISCONSIN REGIONAL WEATHER ROUNDUP
NATIONAL WEATHER SERVICE GREEN BAY WI
800 AM CDT MON APR 24 2017

WIZ005-009-010>012-018-019-241400-
NORTH CENTRAL WISCONSIN

CITY           SKY/WX    TMP DP  RH WIND       PRES   REMARKS
IRONWOOD       CLOUDY    36  23  59 SE9       29.94F
MANITOWISH WTR NOT AVBL
ARBOR VITAE    NOT AVBL
EAGLE RIVER    NOT AVBL
LAND O LAKES   NOT AVBL
RHINELANDER    MOSUNNY   35  26  69 SE12      29.99R
PHILLIPS       CLOUDY    36  28  75 SE9       29.93F
ANTIGO         NOT AVBL
TOMAHAWK       NOT AVBL
MERRILL        NOT AVBL
$$

WIZ013-073-241400-
NORTHEAST WISCONSIN

CITY           SKY/WX    TMP DP  RH WIND       PRES   REMARKS
IRON MOUNTAIN  MOSUNNY   32  24  72 E6        30.04S
MARINETTE      MOSUNNY   39  32  76 E9        30.07S
$$

WIZ017-030-035>037-045-241400-
CENTRAL WISCONSIN

CITY           SKY/WX    TMP DP  RH WIND       PRES   REMARKS
MEDFORD        NOT AVBL
WAUSAU         CLOUDY    35  28  75 SE12      29.98F
MOSINEE        PTSUNNY   36  30  80 E8        30.00F
MARSHFIELD     CLOUDY    37  30  75 E12       29.96S
WISC RAPIDS    MOSUNNY   40  31  70 SE7       29.99F
STEVENS POINT  NOT AVBL
WAUPACA        NOT AVBL
SHAWANO        NOT AVBL
CLINTONVILLE   NOT AVBL
WAUTOMA        NOT AVBL
$$

WIZ038-039-048-051-241400-
FOX VALLEY

CITY           SKY/WX    TMP DP  RH WIND       PRES   REMARKS
NWS GREEN BAY  SUNNY     43  37  79 E7        30.04R
APPLETON       MOSUNNY   39  28  65 E5        30.01R
OSHKOSH        SUNNY     43  35  73 SE5       30.01S
FOND DU LAC    SUNNY     44  34  67 S7        30.02R
$$

WIZ022-050-052-241400-
EAST CENTRAL WISCONSIN

CITY           SKY/WX    TMP DP  RH WIND       PRES   REMARKS
EPHRAIM        NOT AVBL
WASHINGTON ISL NOT AVBL
STURGEON BAY   SUNNY     42  35  76 SE6       30.06S
MANITOWOC      NOT AVBL
SHEBOYGAN      SUNNY     45  40  82 S7        30.03F
$$

LMZ563-521-522-541>543-241400-
LAKESHORE

STATION/POSITION TIME  TEMP    WIND        PRES    VSBY  WAVE
                       AIR SEA DIR/SP/G                  HT/PER
                 (UTC) (F)     (DEG/KT/KT) (MB)    (MI)  (FT/S)
SHEBOYGAN LKSHOR 1200   42     110/  2/  3 1017.6R
KEWAUNEE LKSHORE 1230   41      90/  2/  5 1016.8F
NORTHPORT PIER   1240   37     100/  9/ 12 1018.3R
N MID LAKE BUOY  1150   36 37   90/ 14/ 16 1019.1F         3/ 4
CHAMBERS ISLAND  1240   38      40/  6/  9 1017.3F
MENOMINEE LKSHOR 1230   37      50/ 10/ 11 1016.8F
$$



USA.gov is the U.S. government's official web portal to all federal, state and local government web resources and services.